Regional Weather Roundup
Issued by NWS

Home | Current Version | Previous Version | Graphics & Text | Print | Product List | Glossary On
Versions: 1 2 3 4 5 6 7 8 9 10 11 12 13 14 15 16 17 18 19 20 21 22 23 24 25 26 27 28 29 30 31 32 33 34 35 36 37 38 39 40 41 42 43 44 45 46 47 48 49 50
000
ASUS45 KSLC 310610
RWRUT

UTAH REGIONAL WEATHER ROUNDUP
NATIONAL WEATHER SERVICE SALT LAKE CITY UT
1100 PM MST FRI JAN 30 2015

UTZ001>011-023>025-310700-

NORTHERN UTAH

CITY           SKY/WX    TMP DP  RH WIND       PRES   REMARKS
BRIGHAM CITY   CLOUDY    41  32  70 NW7       30.00S
HILL AFB       CLOUDY    41  29  63 E26       29.95F
LOGAN          CLOUDY    36  33  89 CALM      30.02S
OGDEN          CLOUDY    43  33  68 CALM      29.96F
PROVO AIRPORT  CLOUDY    41  34  75 N7        29.96F
SALT LAKE CITY CLOUDY    41  36  82 W7        29.97S
VERNAL         CLOUDY    38  36  92 W3        29.97F
WENDOVER       CLOUDY    43  28  56 N9        30.03R
HEBER CITY     MIX PCPN  34  32  93 SE3       29.99S
WEST JORDAN    CLOUDY    43  36  75 NW9       29.97F

$$

UTZ012>022-026-027-310700-

SOUTHERN/CENTRAL UTAH

CITY           SKY/WX    TMP DP  RH WIND       PRES   REMARKS
BLANDING       CLOUDY    32  32 100 NW3       30.04S
BRYCE CANYON   CLOUDY    29  28  96 CALM      29.93S
CEDAR CITY     CLOUDY    37  36  96 CALM      29.89S
DELTA          CLOUDY    38  37  98 N9        29.95S WCI  31
HANKSVILLE     CLOUDY    39  37  93 CALM      29.99S
MILFORD        LGT RAIN  38  36  92 N14       29.92S WCI  30
MOAB/CYNLANDS  LGT RAIN  41  38  89 SE3       29.95R
PRICE          MIX PCPN  37  35  92 CALM      29.95F
ST GEORGE      CLOUDY    46  43  87 CALM      29.92R
KANAB          CLOUDY    36  36 100 NE8       29.96S WCI  29

$$

REGIONAL REPORTS     COLORADO/ARIZONA

CITY           SKY/WX    TMP DP  RH WIND       PRES   REMARKS
CRAIG, CO      CLOUDY    33  31  92 CALM      29.96S
GRAND JUNCTION LGT RAIN  39  39 100 N3        29.95F
RIFLE          LGT RAIN  37  35  92 CALM      29.96S
MONTROSE       CLOUDY    39  37  92 CALM      29.97S
CORTEZ         LGT RAIN  36  34  92 SW8       29.97S WCI  30
PAGE, AZ       NOT AVBL
GRAND CANYON   LGT RAIN  38  37  97 CALM      29.91R FOG
KINGMAN        CLOUDY    46  44  93 NE6       29.87R
FLAGSTAFF      CLOUDY    38  36  92 SW12      29.91S WCI  30

$$

REGIONAL REPORTS    NEVADA/IDAHO/WYOMING

CITY           SKY/WX    TMP DP  RH WIND       PRES   REMARKS
LAS VEGAS, NV  LGT RAIN  51  44  77 E6        29.84S
ELY            CLOUDY    33  33 100 N15       29.97S WCI  23
ELKO           PTCLDY    34  27  75 NW3       30.04R
POCATELLO, ID  CLOUDY    32  32 100 SW12      30.11S WCI  23
BURLEY         CLOUDY    35  31  85 W7        30.12R WCI  29
EVANSTON, WY   CLOUDY    31  27  85 NE15      30.02S WCI  20
ROCK SPRINGS   LGT SNOW  29  26  89 NE13      30.04S FOG     WCI  19
KEMMERER       FLURRIES  30  28  93 NE9       30.04F WCI  22

$$



USA.gov is the U.S. government's official web portal to all federal, state and local government web resources and services.